Seldovia, AK

1:08 AM AKDT on May 30, 2017 (GMT -0800)
Seldovia

Weather History for PASO - September, 2012

Change the Weather History Date:

Tuesday, September 18, 2012

  Actual Average (PAHO) Record (PAHO)
Temperature  
Mean Temperature 52 °F -  
Max Temperature 55 °F 54 °F 61 °F (1932)
Min Temperature 48 °F 40 °F 28 °F (2000)
Degree Days  
Heating Degree Days 14    
Growing Degree Days 2 (Base 50)    
Moisture  
Dew Point 48 °F    
Average Humidity 87    
Maximum Humidity 90    
Minimum Humidity 80    
Precipitation  
Precipitation 1.48 in - - ()
Sea Level Pressure  
Sea Level Pressure 29.69 in    
Wind  
Wind Speed 6 mph (South)    
Max Wind Speed 12 mph    
Max Gust Speed 30 mph    
Visibility 8 miles    
Events Rain    
Averages and records for this station are not official NWS values.
T = Trace of Precipitation, MM = Missing Value Source: NWS Daily Summary

Daily Weather History Graph

Daily Weather History Graph

Search for Another Location

Airport or City:

Trip Planner

Search our weather history database for the weather conditions in past years. The results will help you decide how hot, cold, wet, or windy it might be!

Date:

Astronomy

Sep. 18, 2012 Rise Set
Actual Time 7:43 AM AKDT 8:16 PM AKDT
Civil Twilight 7:02 AM AKDT 8:57 PM AKDT
Nautical Twilight 6:12 AM AKDT 9:46 PM AKDT
Astronomical Twilight 5:17 AM AKDT 10:41 PM AKDT
Moon 12:00 PM AKDT (9/18) 8:38 PM AKDT (9/18)
Length of Visible Light 13h 54m
Length of Day
12h 32m
Waxing Crescent, 10% of the Moon is Illuminated
Sep 18
Waxing Crescent
Sep 22
First Quarter
Sep 29
Full
Oct 7
Last Quarter
Oct 15
New

Hourly Weather History & Observations

Time (AKDT) Temp. Dew Point Humidity Pressure Visibility Wind Dir Wind Speed Gust Speed Precip Events Conditions
12:53 AM 50.0 °F 46.9 °F 89% 29.79 in 3.0 mi Variable 6.9 mph - 0.26 in Rain Heavy Rain
1:38 AM 48.2 °F 44.6 °F 87% 29.78 in 2.5 mi South 9.2 mph - 0.20 in Rain Rain
1:53 AM 48.9 °F 44.1 °F 83% 29.78 in 2.5 mi Variable 4.6 mph 20.7 mph 0.27 in Rain Rain
2:15 AM 48.2 °F 44.6 °F 87% 29.77 in 3.0 mi South 9.2 mph 29.9 mph 0.10 in Rain Heavy Rain
2:53 AM 48.9 °F 46.0 °F 90% 29.75 in 3.0 mi Variable 6.9 mph - 0.24 in Rain Heavy Rain
3:03 AM 48.2 °F 44.6 °F 87% 29.74 in 2.5 mi Variable 5.8 mph 20.7 mph 0.05 in Rain Heavy Rain
3:39 AM 50.0 °F 46.4 °F 87% 29.71 in 3.0 mi Variable 4.6 mph - 0.19 in Rain Rain
4:53 AM 50.0 °F 46.0 °F 86% 29.68 in 3.0 mi South 10.4 mph 16.1 mph 0.23 in Rain Heavy Rain
5:53 AM 50.0 °F 46.9 °F 89% 29.66 in 4.0 mi Variable 6.9 mph 20.7 mph 0.18 in Rain Rain
6:53 AM 50.0 °F 46.0 °F 86% 29.65 in 6.0 mi South 8.1 mph - 0.12 in Rain Light Rain
7:53 AM 50.0 °F 46.9 °F 89% 29.62 in 7.0 mi Calm Calm - 0.07 in Rain Light Rain
8:53 AM 51.1 °F 48.0 °F 89% 29.62 in 8.0 mi SSE 8.1 mph 19.6 mph 0.04 in Rain Light Rain
9:06 AM 51.8 °F 48.2 °F 88% 29.62 in 8.0 mi Variable 4.6 mph - 0.00 in Rain Light Rain
9:17 AM 51.8 °F 48.2 °F 88% 29.61 in 7.0 mi Variable 3.5 mph - 0.00 in Rain Light Rain
9:26 AM 51.8 °F 48.2 °F 88% 29.62 in 10.0 mi Variable 5.8 mph - 0.00 in Rain Light Rain
9:53 AM 52.0 °F 48.9 °F 89% 29.63 in 5.0 mi Variable 3.5 mph - 0.01 in Rain Light Rain
10:53 AM 52.0 °F 48.9 °F 89% 29.65 in 8.0 mi South 8.1 mph 18.4 mph 0.02 in Rain Light Rain
11:09 AM 51.8 °F 48.2 °F 88% 29.65 in 6.0 mi Variable 6.9 mph 16.1 mph 0.00 in Rain Light Rain
11:43 AM 53.6 °F 48.2 °F 82% 29.64 in 10.0 mi SSE 8.1 mph - 0.00 in Rain Light Rain
11:53 AM 53.1 °F 48.9 °F 86% 29.65 in 10.0 mi South 11.5 mph 19.6 mph 0.00 in   Overcast
12:53 PM 53.1 °F 50.0 °F 89% 29.68 in 10.0 mi South 8.1 mph - 0.00 in   Overcast
1:53 PM 54.0 °F 50.0 °F 86% 29.68 in 10.0 mi Variable 6.9 mph - 0.01 in   Overcast
2:53 PM 53.1 °F 50.0 °F 89% 29.70 in 10.0 mi Variable 3.5 mph - 0.00 in   Overcast
3:53 PM 54.0 °F 51.1 °F 90% 29.72 in 10.0 mi Calm Calm - N/A   Overcast
4:06 PM 55.4 °F 51.8 °F 88% 29.72 in 10.0 mi Calm Calm - N/A   Overcast
4:53 PM 55.0 °F 50.0 °F 83% 29.72 in 10.0 mi SW 3.5 mph - N/A   Overcast
5:53 PM 55.0 °F 51.1 °F 86% 29.72 in 10.0 mi Calm Calm - N/A   Overcast
6:07 PM 55.4 °F 51.8 °F 88% 29.71 in 10.0 mi Calm Calm - N/A   Overcast
6:34 PM 53.6 °F 50.0 °F 88% 29.71 in 10.0 mi Variable 3.5 mph - N/A   Mostly Cloudy
6:53 PM 54.0 °F 50.0 °F 86% 29.72 in 10.0 mi Calm Calm - N/A   Overcast
7:26 PM 53.6 °F 50.0 °F 88% 29.71 in 10.0 mi Variable 3.5 mph - 0.00 in Rain Light Rain
7:53 PM 54.0 °F 48.9 °F 83% 29.72 in 10.0 mi NE 4.6 mph - 0.00 in Rain Light Rain
8:53 PM 54.0 °F 48.0 °F 80% 29.71 in 10.0 mi SE 4.6 mph - 0.00 in   Overcast
9:53 PM 54.0 °F 48.0 °F 80% 29.71 in 10.0 mi Variable 5.8 mph 17.3 mph N/A   Overcast
10:53 PM 54.0 °F 48.0 °F 80% 29.70 in 10.0 mi Variable 5.8 mph - 0.01 in Rain Light Rain
11:53 PM 53.1 °F 48.9 °F 86% 29.68 in 10.0 mi SSE 8.1 mph - 0.02 in Rain Light Rain